Location: İstanbul
(41.0082°N, 28.9784°E)
Time: 18:05:50
(UTC+03:00)

DOVE 4 - Pass Details

Date: 30 April 2024
Orbit: 581 x 778 km, 97.7° (Epoch: 26 May)

Event Time Altitude Azimuth Distance (km) Brightness Sun altitude
Rises 00:19:52 0° 347° (NNW) 2,956 ? -33.3°
Reaches altitude 10° 00:24:08 10° 307° (NW) 2,097 ? -33.5°
Maximum altitude 00:24:53 10° 298° (WNW) 2,082 ? -33.5°
Drops below altitude 10° 00:25:38 10° 289° (WNW) 2,115 ? -33.6°
Enters shadow 00:26:00 10° 284° (WNW) 2,150 ? -33.6°
